Theta_e
316 315 315 315 314 313 313 312 312 311 310 315 314 320 322 317 316 326 328 329 325 318 313 318 316 314 316 319 319 320 318 317 318 316 317 314 317 315 313 312 311 313 311 311 310 311 308 310 309 311 311 311 314 316 316 317 315 314 312 313 313 326 307 304 305 309 311 314 315 315 314 313 310 310 311 310 307 307 305 305 308 304 305 302 304 301 306
316 315 315 314 314 313 312 312 312 311 310 312 316 319 320 320 321 322 328 329 325 316 310 311 314 315 318 318 317 319 317 317 316 315 316 314 314 313 313 314 315 311 314 312 310 313 306 311 310 309 312 310 317 316 316 317 314 313 312 310 314 307 309 306 302 303 305 307 310 310 312 312 308 307 311 311 310 310 309 309 311 304 305 305 302 298 304
315 315 314 314 314 313 312 312 312 311 311 312 316 315 319 320 324 323 324 327 323 312 314 311 311 312 313 314 314 316 317 318 317 316 315 317 316 315 313 315 315 314 315 313 313 313 310 308 312 312 312 311 317 316 315 316 315 316 321 340 317 309 308 307 299 297 296 296 298 301 303 306 309 310 310 310 309 309 307 304 309 300 308 306 303 304 311
316 315 315 314 314 313 312 312 312 311 310 310 317 318 320 316 312 312 315 318 317 318 322 317 314 311 312 312 313 314 312 315 318 317 316 317 316 315 315 316 316 313 313 312 311 311 314 310 309 311 310 312 314 316 315 315 315 328 328 326 317 309 310 310 307 304 302 305 310 310 311 310 306 308 309 308 310 310 309 308 305 302 307 307 308 308 309
316 315 315 314 314 313 312 312 311 311 310 310 314 320 322 319 312 309 308 312 318 315 319 316 314 309 312 307 311 310 312 314 314 319 312 316 315 315 315 313 311 312 311 310 310 311 311 313 312 310 310 313 314 316 315 315 317 336 321 323 314 312 306 308 311 308 308 308 309 311 312 308 309 307 308 310 309 310 308 304 303 315 305 301 314 316 309
316 315 315 315 314 314 313 312 310 310 309 309 320 317 318 308 311 317 314 306 306 309 312 313 312 312 312 309 312 310 310 312 310 315 316 317 317 312 313 314 314 312 310 311 309 311 312 312 309 312 312 312 313 312 315 313 324 320 313 316 312 308 305 309 309 308 309 310 310 311 310 310 310 310 309 309 310 309 307 307 308 308 305 303 315 317 309
315 314 315 315 315 315 314 313 311 309 308 309 325 313 317 315 314 317 316 308 311 311 312 313 312 311 312 312 311 308 308 307 312 312 313 313 312 315 309 311 314 315 315 313 310 310 307 308 313 314 313 314 314 312 312 314 316 314 312 312 316 310 306 308 309 307 308 309 309 310 309 310 310 309 310 310 310 310 309 309 310 309 311 311 310 316 310
315 315 315 315 315 315 315 314 312 310 307 318 320 315 313 312 312 308 315 315 314 318 316 312 312 310 315 308 311 312 311 310 312 314 313 309 312 317 312 312 314 314 314 314 311 312 312 312 311 315 313 312 315 313 313 310 312 313 311 312 314 309 306 310 308 306 306 308 310 310 310 309 307 308 309 310 310 309 310 310 310 311 309 310 310 311 311
315 315 314 315 314 315 315 314 313 310 309 322 318 315 315 317 320 318 311 310 313 314 315 312 310 307 311 311 312 312 312 310 311 310 314 311 309 311 309 312 312 314 313 313 313 315 314 315 315 315 315 310 314 312 313 316 312 313 312 312 312 311 307 310 308 303 303 307 308 309 310 309 308 307 308 309 309 308 309 308 311 309 311 312 309 308 309
314 314 315 315 314 315 315 314 313 311 311 320 319 313 318 318 320 320 316 309 316 312 316 314 309 307 312 312 311 310 310 312 312 308 312 313 315 314 313 314 313 311 311 311 314 315 316 315 316 317 318 318 317 317 316 315 312 312 313 315 310 310 308 306 306 303 303 308 309 308 308 307 304 305 308 309 310 311 311 312 313 311 312 311 307 307 315
314 314 314 314 314 315 314 314 313 311 313 314 315 315 315 313 312 315 316 309 312 314 312 310 310 312 311 312 310 312 310 311 312 306 308 313 313 316 314 313 312 311 311 316 320 320 318 318 318 319 318 318 317 316 316 316 316 315 314 313 313 313 310 307 310 303 304 307 307 308 304 297 299 311 313 312 309 310 308 308 310 312 312 311 317 316 321
313 313 314 314 314 314 314 314 314 313 311 315 317 317 317 318 317 317 313 307 307 313 311 308 309 309 309 310 311 310 309 310 310 312 309 311 312 314 313 313 313 309 317 320 319 320 319 318 318 319 318 317 316 316 316 314 314 317 316 313 313 312 310 308 314 306 304 307 307 302 297 299 311 314 314 314 313 312 310 311 312 313 313 314 314 316 317
313 313 313 314 314 314 314 314 313 312 312 313 316 315 317 319 316 314 313 309 306 309 307 308 311 312 312 312 310 310 311 311 312 312 313 311 311 312 313 312 312 314 319 317 317 315 311 309 311 313 313 315 316 315 314 313 313 315 315 315 313 311 309 310 308 309 308 304 303 295 297 310 312 313 314 316 314 314 312 310 318 322 323 324 323 323 322
313 313 313 314 314 314 313 313 313 313 312 311 313 318 318 317 312 313 311 308 306 311 311 310 312 310 309 308 308 309 310 310 312 314 310 314 311 312 314 315 316 318 317 317 315 313 308 310 306 307 308 310 310 309 312 313 313 313 313 314 314 312 312 309 305 310 302 304 302 301 310 308 309 310 312 312 311 312 312 307 316 325 324 325 325 329 331
312 313 314 314 314 314 313 313 313 313 312 311 314 318 318 318 315 313 314 311 306 309 312 305 307 308 308 308 309 307 308 309 309 309 313 313 312 313 314 316 318 317 317 314 310 311 307 306 303 303 305 304 300 303 310 308 313 314 313 313 313 315 309 312 306 305 307 303 301 302 301 298 304 311 315 317 318 318 317 313 309 326 325 325 327 327 330
312 313 314 314 314 313 313 313 313 313 313 311 314 317 319 318 318 316 313 310 309 304 309 311 311 308 307 307 310 308 307 307 308 308 307 310 311 314 316 318 318 318 316 313 311 308 307 304 302 302 300 303 308 307 307 310 309 314 315 314 313 313 313 314 307 303 304 303 300 300 298 303 312 315 315 317 318 317 317 310 305 325 327 325 325 325 327
312 314 314 314 314 313 313 313 312 312 312 311 311 316 316 318 316 313 310 311 310 306 313 314 313 311 308 308 310 308 308 305 306 303 303 305 309 310 314 317 318 316 314 310 309 306 304 304 306 306 307 310 306 306 310 307 307 307 312 313 311 309 308 308 305 304 304 303 301 299 304 305 314 316 316 317 318 317 313 300 303 320 325 324 324 324 324
312 313 314 314 314 313 313 312 312 312 312 311 312 314 316 319 318 316 312 310 307 307 313 314 310 307 306 307 305 309 310 309 308 309 306 307 308 309 310 313 311 315 316 307 308 305 305 305 302 304 302 310 311 310 301 308 305 307 308 309 310 307 307 307 303 304 304 304 302 304 306 317 317 318 320 318 317 314 303 299 313 325 326 326 326 325 324
312 313 314 314 313 312 313 312 312 311 312 310 313 317 317 318 318 316 313 310 309 305 312 314 314 311 313 314 310 311 310 309 308 303 304 304 308 310 311 313 314 307 312 307 309 306 304 305 310 308 303 306 310 303 310 305 305 310 310 308 309 309 310 307 307 304 303 304 300 301 307 320 320 320 322 320 312 302 301 317 325 328 325 326 325 327 325
311 313 313 313 312 312 313 312 311 311 311 311 311 311 315 318 317 316 309 305 307 305 308 310 312 309 312 309 307 307 308 309 310 305 304 301 310 310 307 305 312 311 309 310 304 308 305 303 305 310 305 306 307 312 307 308 312 308 308 312 308 308 304 304 307 308 307 307 301 298 293 318 321 317 321 325 312 316 322 325 324 326 327 326 325 327 326
311 312 312 312 312 312 312 312 311 311 312 312 311 311 311 318 317 317 316 310 305 302 307 316 314 311 312 311 312 311 309 305 308 305 307 306 311 307 297 300 304 307 305 306 300 302 306 304 306 306 309 307 310 308 303 304 305 316 313 312 310 315 306 306 307 311 303 303 302 297 313 318 321 319 312 318 320 324 325 322 322 327 329 327 326 329 327
311 311 311 312 312 311 312 312 312 312 313 312 311 312 311 315 317 317 316 314 307 304 308 312 314 312 313 315 315 315 313 311 312 312 308 306 311 308 308 308 308 308 310 310 306 306 309 307 309 305 304 308 311 305 308 303 300 309 316 314 304 315 311 313 305 315 309 306 308 314 320 319 322 322 322 323 325 326 325 327 326 327 328 331 328 329 328
311 311 311 311 311 312 313 313 313 312 312 312 311 311 308 312 314 317 315 309 312 312 314 313 315 316 318 317 319 319 319 319 317 316 314 308 306 309 308 307 307 312 311 313 307 307 307 307 304 308 306 308 305 306 307 305 303 307 306 313 314 317 318 319 316 315 319 319 318 319 319 320 320 322 325 324 323 325 326 327 326 328 329 331 330 331 330
312 311 311 311 311 312 313 312 312 312 312 312 311 310 309 312 312 314 313 311 309 306 311 315 312 310 311 312 315 318 317 316 317 317 318 315 305 305 310 312 312 311 311 314 316 308 308 308 306 309 303 308 310 305 302 302 306 309 306 305 311 317 318 316 312 315 307 301 320 317 317 320 321 319 323 326 327 330 330 329 328 328 328 329 332 332 331
312 311 310 310 311 312 312 312 312 312 312 312 311 312 314 313 316 314 309 304 305 304 299 306 310 315 317 318 319 317 317 319 320 318 316 315 312 307 306 311 313 309 310 314 317 311 311 305 307 307 302 310 311 303 310 303 305 312 304 309 311 309 317 312 312 312 308 309 317 319 319 320 321 321 321 323 325 328 329 329 329 329 328 328 330 331 331
312 311 311 311 310 311 312 311 311 311 312 312 312 310 310 310 315 317 314 312 310 307 301 302 309 318 317 315 314 317 320 319 319 318 316 316 316 315 313 314 313 316 315 314 312 309 307 306 308 307 304 306 315 306 307 311 309 312 308 307 312 317 312 309 313 309 312 316 318 318 320 319 320 321 323 324 326 325 327 328 327 327 327 327 329 330 329
312 311 311 310 310 311 311 311 312 312 312 312 311 312 312 314 316 314 312 310 305 304 307 304 308 311 314 312 316 318 319 319 318 317 316 316 315 315 314 313 312 312 311 310 311 310 310 308 306 304 307 307 311 309 310 308 310 307 306 310 316 314 308 312 310 307 306 308 313 319 310 310 317 319 322 323 324 326 326 326 326 325 326 328 327 328 331
313 312 311 310 310 311 311 311 311 312 312 312 312 314 316 314 316 317 317 315 308 300 300 301 302 308 313 311 317 318 319 319 317 316 315 315 315 314 313 312 312 310 310 308 305 306 306 304 303 310 310 311 309 306 311 312 311 308 307 309 313 312 312 314 307 306 305 317 318 322 321 319 319 319 321 323 325 325 324 324 325 326 328 329 329 328 330
313 312 311 311 310 310 311 311 311 311 312 312 313 313 314 316 317 317 317 318 315 308 305 305 308 307 304 311 318 316 318 317 316 315 315 315 315 314 313 313 311 311 310 309 308 308 306 307 311 308 307 313 308 305 307 303 304 303 308 316 313 315 318 316 315 315 315 317 318 319 319 316 319 321 322 322 324 323 322 324 326 327 328 330 331 332 330
313 313 311 310 310 310 311 311 311 311 312 312 312 311 308 310 317 318 316 315 315 312 303 300 297 306 313 313 313 316 316 317 316 316 315 314 313 313 313 313 312 311 310 308 308 304 308 308 311 313 314 317 308 307 303 304 303 305 311 314 317 318 318 318 319 316 314 319 320 321 320 321 322 323 323 323 324 325 324 325 330 330 330 331 330 331 333
313 313 312 311 311 311 311 310 310 311 311 311 309 305 307 303 309 317 314 315 317 310 305 304 300 307 307 315 316 314 315 315 315 314 314 314 313 314 315 315 314 312 308 308 308 307 309 306 307 309 313 313 311 307 304 303 302 305 309 316 315 315 314 316 320 320 319 319 320 320 320 320 322 321 320 321 323 327 328 329 334 331 330 331 331 332 333
313 313 312 311 311 311 311 310 311 311 311 308 306 306 309 309 312 314 314 314 315 310 305 300 301 304 306 310 315 318 316 315 315 315 315 314 312 314 314 313 311 314 311 308 310 310 308 311 310 310 310 314 313 307 307 304 302 304 311 317 318 317 318 317 318 319 320 320 319 317 315 316 319 318 317 322 323 324 325 329 329 331 332 331 331 331 333
313 313 312 312 311 311 311 311 311 311 310 311 312 312 311 311 311 312 313 314 312 308 309 303 299 303 302 308 314 315 317 315 313 314 313 316 312 315 311 313 313 312 317 311 306 306 311 311 312 309 314 319 309 308 306 304 306 311 313 314 316 316 316 317 317 318 318 318 318 314 313 314 317 320 322 323 324 322 326 325 327 331 330 329 328 327 328
313 312 312 311 311 311 311 311 312 311 311 310 308 311 316 314 314 312 315 317 311 311 310 303 300 301 302 312 306 315 318 310 310 314 309 317 317 314 311 312 314 309 312 308 312 311 312 311 308 309 314 310 312 307 302 306 311 312 312 312 314 314 316 315 315 315 317 317 317 317 318 320 320 321 320 319 319 326 328 327 327 326 327 327 326 325 326
313 312 312 312 311 312 311 311 311 310 309 310 312 316 315 313 314 314 314 313 303 303 304 304 305 300 301 304 304 311 318 313 309 318 309 315 320 312 313 308 312 307 311 315 311 310 308 309 313 308 305 311 306 303 305 308 310 311 313 313 314 314 315 314 314 316 316 319 318 317 318 317 316 315 316 318 318 320 322 324 325 325 327 327 326 325 327
312 312 312 312 312 312 312 312 311 310 309 310 313 316 314 316 315 317 318 317 311 303 302 302 304 300 302 298 300 310 317 310 315 314 314 316 314 318 315 311 304 309 315 311 307 311 308 316 310 303 308 304 302 305 310 314 314 315 315 314 315 314 313 314 315 316 318 320 320 319 319 319 317 317 320 318 319 322 324 324 327 330 330 329 329 329 330
313 313 312 312 313 313 310 311 315 313 313 318 318 319 317 317 318 317 316 314 315 314 305 302 299 300 303 304 308 312 313 306 314 310 313 310 308 318 312 310 305 311 310 308 308 306 311 321 310 304 305 302 306 318 316 318 317 316 316 317 318 319 320 319 319 320 318 318 318 319 318 318 319 320 320 319 321 319 329 327 329 329 328 329 329 329 330
313 312 312 311 310 307 308 312 314 316 318 315 317 313 313 310 307 309 310 306 309 310 307 305 300 304 309 306 302 312 311 307 313 308 310 313 309 309 314 308 307 310 302 304 309 315 314 312 307 304 306 314 315 315 317 318 321 320 320 319 318 319 322 322 321 320 320 318 318 318 318 316 316 318 318 319 322 322 325 329 329 328 328 328 329 330 329
312 312 311 311 309 307 307 313 320 316 315 316 314 308 306 311 307 303 304 306 308 302 307 305 302 307 306 306 307 316 311 308 307 309 304 313 306 303 312 303 312 308 302 304 307 313 305 307 307 305 304 309 310 315 318 319 319 319 319 320 320 319 321 323 323 321 319 318 319 322 321 318 318 319 321 321 322 323 324 327 329 329 329 329 330 330 329
311 308 308 308 307 310 316 318 317 316 315 308 310 306 302 308 303 299 309 301 299 306 308 303 308 308 309 306 306 307 316 311 305 304 306 309 314 305 310 307 310 305 300 301 305 311 304 301 306 304 302 308 310 315 317 318 317 318 319 320 321 322 322 321 322 324 325 325 326 322 321 321 321 320 320 320 320 321 322 324 327 330 329 329 328 329 329
311 311 309 306 311 312 314 316 316 313 308 304 305 306 303 298 306 307 304 302 300 302 310 308 310 309 311 311 311 306 319 317 319 318 312 305 318 313 307 302 317 302 301 301 311 308 306 303 302 303 306 312 314 316 318 318 318 318 320 321 322 323 323 322 321 323 324 324 324 322 322 323 325 324 324 324 325 325 326 327 328 329 330 329 326 328 331
310 309 310 312 313 314 313 312 311 307 307 307 300 296 300 301 305 304 304 297 299 305 308 309 306 307 309 311 311 310 313 319 316 313 310 305 312 307 304 305 308 300 298 308 309 308 304 301 302 303 312 314 316 317 316 317 318 318 319 320 321 322 321 320 320 323 326 326 325 325 325 326 327 329 328 328 327 327 327 329 330 331 330 330 330 328 329
310 312 312 309 310 309 310 301 308 306 294 293 295 291 298 295 300 298 301 306 310 307 310 316 312 315 315 316 312 315 314 319 312 312 309 305 314 312 306 304 303 297 303 311 307 302 300 299 300 303 310 312 314 315 316 317 318 319 319 321 322 322 321 322 323 323 325 326 327 327 327 326 327 329 329 327 326 326 329 330 330 330 331 331 332 331 331
313 311 308 309 306 306 308 291 307 302 294 296 293 289 296 296 299 302 301 304 308 306 312 308 308 307 303 312 309 310 313 319 319 313 309 312 307 305 305 301 302 311 312 306 303 300 301 304 305 306 311 313 314 315 316 317 319 319 320 320 321 320 320 320 321 324 324 327 326 326 327 328 327 328 327 327 326 328 330 331 331 331 331 330 329 328 329
307 305 306 302 296 303 298 288 305 298 290 295 298 297 298 296 299 302 302 308 308 305 309 309 308 308 305 310 311 312 311 306 316 306 303 309 303 305 303 301 308 309 303 298 301 301 303 303 308 309 311 312 313 316 319 320 321 320 318 319 320 320 319 319 321 322 324 324 326 326 324 326 326 326 327 328 329 329 330 331 333 330 329 327 328 327 328
303 297 296 291 287 293 294 291 294 292 300 302 300 302 301 302 303 303 308 310 307 308 307 308 308 308 305 309 305 305 314 312 308 308 310 308 300 300 308 313 309 302 300 299 298 297 300 303 307 308 312 313 316 317 319 321 321 320 320 318 318 320 321 319 322 322 322 323 324 325 325 327 326 327 327 328 330 330 332 333 333 332 331 329 326 328 331
304 305 301 298 291 295 302 293 295 299 302 303 304 305 305 305 307 308 309 310 308 309 309 311 309 309 305 306 307 308 313 311 304 309 309 302 301 304 310 304 298 299 295 296 298 300 303 307 310 314 315 316 317 318 318 319 321 319 320 320 320 320 321 324 322 324 326 326 326 325 325 327 328 329 328 329 330 331 330 332 334 334 333 331 329 331 333
295 303 303 290 289 295 294 299 305 305 306 305 305 307 307 309 307 306 309 310 310 310 308 308 305 307 306 311 308 303 305 307 303 306 310 305 308 302 298 300 298 301 303 299 300 305 307 309 312 314 317 317 317 317 318 319 321 322 320 320 320 320 322 323 325 326 328 326 326 326 326 327 327 328 328 329 330 331 331 331 333 334 333 333 333 332 333
306 302 294 293 299 301 301 304 303 300 303 305 306 306 306 305 305 307 309 311 309 309 310 307 306 306 302 307 304 303 302 307 299 298 307 304 298 296 297 296 297 295 303 306 306 307 310 312 316 317 317 318 318 318 320 320 322 322 322 319 320 320 321 323 325 326 326 325 325 326 326 326 327 329 329 329 327 328 331 332 330 330 332 332 332 333 333
297 297 301 299 299 301 303 304 302 299 302 304 304 304 306 305 305 307 311 308 310 309 310 308 310 304 304 305 297 301 300 304 303 303 302 300 301 303 301 297 299 299 302 307 308 310 313 315 318 318 319 320 321 321 320 320 322 323 322 323 321 322 323 326 326 326 326 327 326 326 327 327 327 327 330 329 328 329 330 330 330 330 331 333 333 333 333
305 301 299 305 299 298 301 297 297 299 300 301 303 304 306 305 306 306 311 309 309 307 306 302 304 302 298 297 294 292 298 307 302 301 301 300 303 301 299 298 302 305 307 309 311 312 315 317 318 317 318 320 319 320 322 322 323 323 322 321 321 322 323 324 326 326 326 327 328 326 328 328 329 330 333 332 330 328 328 329 329 329 328 329 332 334 333
295 294 297 302 305 304 304 303 303 302 302 304 304 306 307 305 307 308 312 309 307 303 301 305 303 298 294 292 298 303 306 302 301 301 299 303 305 302 302 304 307 312 312 310 311 313 315 316 320 319 320 319 320 321 323 323 324 323 323 321 323 322 322 321 325 327 327 326 329 328 330 331 330 330 330 329 329 327 327 326 326 327 327 327 328 332 334
Wind_Speed
19 20 21 22 23 24 24 24 23 22 24 15 13 12 8 5 7 6 3 2 6 6 7 7 8 8 9 10 14 13 10 7 7 9 10 10 6 7 8 10 10 10 11 13 14 14 11 13 11 9 11 14 12 12 15 14 13 10 7 10 9 11 9 9 12 11 14 10 13 16 12 6 9 12 15 8 6 10 8 9 7 2 2 6 2 3 7
19 20 21 21 23 24 25 25 24 21 18 10 11 9 7 8 9 1 6 2 4 6 6 6 7 6 7 9 13 10 5 9 12 10 11 8 7 10 8 8 11 13 11 11 12 10 11 9 13 11 10 10 9 16 14 13 9 8 6 7 9 9 9 9 8 7 6 11 14 9 11 4 7 9 7 7 11 12 12 14 5 2 3 8 4 2 5
18 19 20 22 23 25 25 25 25 23 17 12 7 7 8 9 8 9 3 6 6 7 6 8 8 9 11 12 11 8 5 5 11 6 10 11 12 9 8 9 11 10 7 11 12 14 14 11 11 12 12 13 9 10 10 4 10 9 7 5 3 7 6 10 10 10 10 10 7 8 7 9 7 7 10 11 13 14 11 6 2 5 5 3 6 1 4
18 19 20 21 23 24 25 26 26 25 20 16 7 7 8 6 7 6 7 7 4 9 5 5 7 8 8 11 10 10 10 8 11 2 11 8 13 12 12 11 12 12 12 11 10 11 10 12 10 9 10 12 9 11 15 6 7 10 4 11 7 8 10 12 10 9 9 7 5 7 8 7 8 9 13 11 12 12 10 7 7 7 3 3 2 6 4
18 20 21 21 23 24 25 26 27 27 25 16 7 6 5 9 4 8 7 8 4 8 4 5 8 8 10 8 8 11 10 11 10 12 9 1 7 10 12 9 10 10 11 12 12 12 14 13 14 15 17 12 13 12 17 10 3 12 7 6 8 6 10 13 4 11 14 15 14 13 11 11 10 14 15 11 12 12 11 8 10 2 3 5 5 3 3
18 20 21 21 23 24 26 26 28 28 29 25 5 7 7 5 7 6 8 6 5 9 6 11 8 10 9 8 9 10 11 9 10 8 9 13 12 11 6 9 11 14 15 14 12 8 11 11 13 14 14 16 17 19 14 7 9 8 12 12 10 10 10 13 14 13 13 14 15 14 14 13 12 11 12 15 10 11 14 16 16 12 6 6 8 7 5
19 21 22 23 22 24 25 27 28 29 31 25 5 9 6 7 7 5 12 8 9 9 12 12 10 11 8 6 8 10 10 10 9 8 13 11 8 8 7 9 12 11 6 9 12 11 8 8 9 8 14 14 14 14 14 13 10 9 11 12 8 9 12 14 15 16 17 17 17 16 18 17 17 16 13 14 14 12 15 14 9 8 10 7 10 6 5
19 19 21 22 22 23 24 25 27 29 31 21 6 9 8 9 9 7 12 10 11 9 7 8 8 9 5 5 2 8 9 10 10 9 9 10 11 9 12 14 15 12 8 10 10 7 10 11 10 9 12 13 10 13 13 8 9 13 13 10 11 10 9 13 15 14 16 17 17 18 19 18 17 17 17 13 12 14 14 11 11 13 16 14 10 4 1
17 18 20 20 21 22 22 24 26 29 28 8 10 8 9 7 6 5 8 10 8 9 8 6 7 8 4 5 6 7 8 10 13 12 10 11 13 12 15 15 17 12 12 11 10 14 12 13 15 16 14 11 11 9 9 15 14 17 10 11 10 13 11 10 11 12 14 15 16 17 17 19 20 20 21 19 17 16 13 11 10 12 6 1 2 7 6
17 17 19 19 20 20 22 23 24 26 26 8 8 8 9 8 7 8 7 8 9 10 8 6 7 4 8 8 11 9 10 10 11 11 8 11 11 11 11 14 14 9 12 14 8 11 13 16 17 16 15 15 15 13 14 13 12 11 14 6 11 9 9 10 9 11 11 13 16 18 17 15 16 15 14 15 14 13 13 11 13 13 12 4 6 7 5
16 16 17 18 19 19 21 21 23 24 17 11 9 8 9 10 10 9 7 9 9 8 6 6 7 7 9 10 11 11 12 12 10 10 8 11 15 16 16 14 11 10 10 8 6 9 11 15 18 17 18 19 19 15 15 18 15 14 11 9 8 9 11 10 7 10 9 15 16 15 12 13 11 9 14 16 17 13 15 14 15 16 13 9 4 4 10
15 15 16 18 18 18 20 20 22 22 19 11 9 6 9 9 8 7 7 8 9 9 7 7 9 10 10 10 9 10 11 12 13 13 14 12 16 17 16 13 10 9 7 11 14 14 13 16 17 17 20 21 22 23 23 22 18 14 13 13 10 11 9 7 5 8 10 11 12 10 15 13 7 13 15 15 12 11 10 17 14 13 15 17 12 2 16
15 15 16 17 17 18 18 19 20 20 20 14 11 7 9 11 7 7 7 6 7 9 8 9 10 8 10 11 11 11 13 13 13 13 12 13 13 13 10 10 11 12 14 16 17 16 13 15 15 16 17 17 18 21 25 24 21 18 14 14 12 10 8 5 6 7 7 10 9 11 9 7 9 12 14 12 13 11 11 14 16 16 18 18 15 15 5
13 14 15 15 16 17 18 19 19 21 21 16 9 7 8 10 8 7 6 6 7 8 10 11 7 13 14 13 12 13 12 12 11 11 12 9 12 12 10 10 11 12 11 11 13 11 10 9 10 8 12 12 14 15 18 21 22 21 20 18 15 15 10 9 10 7 11 9 11 13 8 10 10 12 9 6 7 4 5 4 10 16 17 16 15 15 16
12 14 14 14 15 16 18 18 19 20 21 21 10 5 7 8 8 6 6 6 8 11 7 7 11 14 15 13 10 10 8 9 9 8 12 13 11 9 9 12 11 12 12 10 10 8 7 8 11 9 8 10 11 12 12 13 15 22 23 19 17 13 12 6 10 9 9 10 10 9 11 13 8 10 10 2 6 4 8 9 2 15 15 16 15 16 16
12 13 13 13 14 16 17 17 17 18 19 21 11 9 6 7 8 6 6 6 7 7 5 11 10 11 10 10 10 10 9 9 8 9 9 9 11 14 14 13 9 13 12 8 9 8 7 9 11 10 10 9 5 6 5 6 9 13 20 22 21 19 14 9 13 10 10 12 12 10 11 6 4 5 4 6 5 5 8 3 4 9 13 14 15 15 16
11 12 12 13 13 14 16 16 16 17 17 17 10 9 6 8 7 7 7 6 5 8 12 12 9 9 9 8 8 7 9 8 8 8 8 8 11 14 11 12 12 9 11 10 9 8 9 10 10 11 10 9 10 5 5 3 7 8 12 16 24 19 15 13 14 14 11 11 11 12 7 3 6 7 8 2 3 4 3 7 4 8 10 12 14 14 14
11 12 12 12 12 13 14 14 16 16 17 18 11 8 5 7 6 7 5 6 7 10 7 8 12 8 8 8 9 10 7 7 9 8 8 9 11 7 12 11 9 11 11 9 7 9 9 9 10 9 11 2 3 4 7 3 4 5 6 5 6 11 15 15 17 14 13 12 11 7 6 4 3 7 8 6 4 6 6 8 5 5 7 8 10 13 12
9 10 11 11 11 13 13 14 14 15 16 18 14 8 2 6 6 7 6 6 7 8 11 15 11 10 8 8 9 8 9 8 4 7 8 8 3 14 14 12 10 9 6 7 9 9 9 9 7 8 10 8 2 3 5 6 2 4 8 8 6 6 8 10 14 14 13 11 13 9 4 4 7 3 6 5 1 7 4 4 6 3 8 7 7 7 11
8 8 10 11 11 12 12 13 14 14 15 15 12 6 8 4 5 6 6 7 6 10 13 14 7 9 8 9 9 8 9 9 5 6 7 9 9 14 10 4 5 8 8 6 9 6 7 9 8 5 7 4 1 5 5 9 4 4 4 1 3 1 1 5 5 5 5 9 13 8 7 4 13 4 4 7 5 3 1 1 4 5 6 8 7 7 8
8 7 8 10 10 11 11 13 13 13 14 15 13 7 7 3 6 5 5 5 7 10 8 1 10 14 12 11 9 9 10 11 9 7 7 8 8 7 5 5 9 6 5 6 6 7 5 7 7 4 4 5 2 2 1 5 8 7 5 4 2 2 1 2 1 1 2 3 4 2 4 8 13 13 3 6 8 4 4 2 2 4 5 7 6 7 8
8 8 8 9 10 10 11 12 12 12 12 12 14 8 5 6 6 5 6 6 7 9 9 17 16 15 16 15 13 9 8 7 10 9 8 8 6 7 8 10 9 6 5 6 6 6 3 5 6 5 7 6 2 4 1 4 4 3 6 4 5 4 2 0 1 1 2 3 5 4 9 10 9 4 5 5 3 2 2 3 2 3 5 5 5 6 8
7 9 9 9 8 10 10 11 11 11 12 11 11 6 7 7 7 8 8 9 9 11 13 15 15 14 14 17 15 11 8 7 8 9 9 7 8 7 8 7 8 4 5 5 6 7 8 8 8 7 8 3 5 6 5 5 4 1 5 4 8 2 4 4 2 2 4 4 6 7 5 7 11 5 3 4 5 4 4 6 4 5 5 4 4 6 7
8 8 8 7 9 9 9 10 11 11 12 11 9 7 7 8 8 8 7 8 8 11 11 10 10 8 6 6 3 15 12 8 8 6 8 6 9 7 7 4 7 5 2 7 4 6 7 7 8 7 9 6 6 6 7 5 3 1 1 5 4 6 4 4 3 4 3 2 3 1 0 2 8 9 9 11 8 9 8 8 7 6 7 6 6 6 7
7 8 8 8 7 7 9 10 11 11 10 11 11 8 8 7 4 5 7 7 7 8 8 10 11 5 10 5 4 5 6 8 3 8 7 5 6 9 9 5 8 8 10 7 4 6 5 8 8 7 10 5 3 6 4 6 2 3 3 1 1 6 7 8 6 5 4 5 8 4 3 4 9 6 5 6 8 8 7 6 6 6 6 6 5 7 8
7 7 7 8 8 8 9 10 11 11 12 11 11 8 7 7 6 6 6 6 7 7 7 7 8 11 12 11 9 7 5 6 8 7 9 9 8 9 11 9 8 7 8 7 8 7 7 7 6 8 9 5 2 5 6 1 4 5 6 9 6 5 2 5 0 5 8 6 7 4 2 5 6 11 3 3 4 5 6 7 7 8 9 9 8 7 8
7 7 7 8 8 8 9 9 10 11 12 11 10 8 7 7 6 6 5 5 9 5 6 8 10 13 13 18 16 13 11 10 7 7 8 8 9 8 9 10 10 7 7 8 7 8 7 8 8 9 7 7 7 8 7 8 5 5 7 7 7 4 5 9 7 6 7 6 3 2 4 5 1 2 3 6 5 5 6 7 7 7 8 8 9 9 9
7 8 7 7 7 7 8 10 10 12 11 13 11 9 8 8 7 6 5 4 4 6 10 12 11 13 17 19 14 12 12 11 7 6 7 7 8 8 9 9 8 8 7 7 8 7 7 9 9 7 7 6 7 7 6 7 7 8 9 6 3 6 5 5 8 7 3 5 2 2 2 5 7 8 5 5 4 4 6 6 7 7 6 7 9 10 10
8 8 8 7 6 7 8 10 11 12 12 13 9 9 9 9 8 5 2 0 4 6 8 11 13 13 8 8 11 9 7 7 6 7 8 8 8 8 8 8 8 8 8 8 8 8 8 9 7 8 6 3 4 8 7 7 7 8 5 4 3 3 6 7 8 8 9 9 6 4 5 7 7 7 6 7 6 6 8 8 7 6 5 7 8 9 10
8 8 7 5 6 8 9 10 11 11 12 9 8 7 5 4 5 4 3 3 4 4 7 9 9 5 10 8 9 10 8 7 5 6 6 7 8 7 7 7 8 7 7 8 7 9 8 8 8 8 9 4 6 6 9 8 9 7 6 3 6 7 7 7 6 6 6 5 5 5 6 7 7 8 9 9 8 8 8 6 5 4 5 8 10 10 10
8 8 7 7 8 8 9 10 10 11 12 7 6 5 6 2 3 3 5 3 3 5 6 6 10 10 10 8 9 9 9 5 5 7 6 7 6 7 7 6 7 7 8 8 8 9 8 9 8 9 8 8 7 8 9 9 10 9 7 5 1 5 6 7 5 6 7 6 7 6 6 7 6 7 10 9 3 1 4 4 2 2 3 7 10 12 11
8 7 6 7 8 9 10 10 11 10 7 6 6 5 4 4 3 5 7 8 6 6 7 8 8 6 5 7 4 5 9 8 8 5 5 4 5 5 7 8 7 6 7 8 8 7 9 9 10 10 9 5 6 8 9 10 12 11 8 2 1 4 5 6 7 7 7 7 7 9 9 9 8 8 6 4 7 8 6 3 4 4 5 6 10 12 12
8 8 8 9 9 11 11 11 11 9 8 11 18 21 22 22 20 16 12 7 6 5 4 5 8 7 5 4 7 8 8 5 5 3 5 4 7 2 6 5 7 8 7 9 7 8 6 7 7 10 5 8 6 6 7 10 11 11 12 9 7 6 7 7 8 8 8 8 9 8 7 7 6 6 6 6 7 8 6 7 6 5 6 9 13 14 12
8 8 9 10 11 12 12 12 11 13 13 10 8 7 8 14 9 10 7 5 5 5 3 5 6 8 9 8 10 2 5 6 4 3 7 4 4 5 6 6 5 7 6 8 6 7 8 8 9 8 4 6 7 7 9 10 11 12 12 11 10 8 8 8 8 10 10 10 10 11 11 9 8 8 8 10 10 9 9 5 4 7 8 9 12 12 10
8 9 10 12 13 13 13 13 10 6 7 7 8 3 6 8 1 7 8 4 4 4 4 5 5 8 9 7 7 2 2 6 5 2 7 2 4 6 4 7 4 7 4 4 8 8 8 8 6 7 8 5 7 7 8 9 11 11 8 7 8 8 10 10 9 8 10 10 12 10 8 9 11 10 9 9 11 11 9 7 8 8 8 8 10 12 9
8 9 11 12 14 12 10 9 8 6 6 6 4 5 4 5 4 5 6 6 6 6 5 5 4 8 8 9 8 3 0 8 3 4 2 3 5 3 5 5 9 7 5 6 8 6 8 6 6 9 6 7 8 7 4 5 7 8 8 9 11 9 9 9 11 12 12 12 14 13 13 14 12 9 6 10 10 10 8 7 6 7 7 8 10 9 7
9 9 12 15 10 6 7 6 5 8 2 3 4 3 10 7 6 7 7 6 4 5 6 6 8 10 9 9 6 6 6 6 2 2 2 1 5 1 4 3 8 3 3 7 9 9 7 3 4 10 8 9 7 3 2 3 3 4 4 5 6 7 9 12 12 11 12 11 12 13 12 12 11 10 10 10 10 7 4 2 5 6 7 9 9 9 9
7 9 7 6 5 7 6 3 1 2 2 4 5 5 5 5 5 4 4 5 5 6 6 6 11 10 8 9 10 5 6 7 5 3 1 0 5 4 4 5 2 2 6 7 4 6 6 4 7 9 10 3 8 6 7 4 4 4 5 6 8 8 6 6 10 13 11 11 10 11 12 13 12 10 8 9 9 8 7 6 5 5 8 10 10 9 9
7 6 5 4 4 4 4 2 3 4 6 5 6 4 4 3 4 4 4 5 3 6 7 8 12 9 9 9 10 6 8 9 9 7 7 3 4 3 0 4 1 2 4 8 1 5 6 4 3 2 5 3 5 5 7 7 7 7 8 9 9 9 8 8 8 12 11 10 12 10 7 8 8 8 7 8 8 8 8 7 5 5 6 8 9 10 11
5 5 3 4 5 3 2 6 7 4 4 4 2 4 5 4 5 3 3 3 3 6 4 7 8 9 10 10 9 8 4 7 8 7 7 4 3 5 1 1 2 5 8 8 2 1 4 7 3 4 3 1 2 3 6 7 9 9 10 10 10 9 9 10 10 10 12 13 12 13 11 12 11 9 9 8 8 7 8 7 6 6 6 5 9 12 13
4 5 5 4 6 5 7 7 6 5 3 4 3 3 3 3 5 3 2 6 5 3 5 7 4 5 5 7 7 8 2 2 2 2 2 4 2 4 5 6 1 4 6 5 3 2 2 4 4 6 2 3 4 6 8 8 9 11 10 10 10 8 9 10 13 14 14 12 10 10 10 8 4 4 5 4 5 6 6 6 5 5 6 2 1 6 11
3 3 5 7 8 7 7 5 3 3 3 3 3 4 3 4 3 3 4 4 4 2 2 2 5 4 5 8 6 6 2 3 3 3 2 2 3 4 6 3 3 4 4 2 1 2 3 7 5 4 4 5 7 7 7 9 10 11 12 12 10 8 8 9 12 14 12 9 6 6 4 4 4 2 2 3 4 4 5 5 5 5 5 5 3 5 8
6 7 6 6 5 5 2 3 3 3 1 1 2 3 4 4 4 5 4 5 3 4 0 1 3 1 6 9 7 5 5 2 3 2 4 3 1 3 4 4 3 4 3 4 2 3 4 5 5 5 7 8 8 8 9 10 11 11 12 10 8 8 10 12 12 11 6 3 2 1 2 4 4 3 1 0 5 5 4 2 3 3 3 3 4 4 7
4 4 5 3 3 1 1 3 3 3 2 2 2 3 5 6 5 5 5 0 2 3 5 6 3 4 5 0 4 5 3 2 0 3 5 1 2 4 4 4 3 2 2 3 2 5 5 2 4 7 8 8 7 10 9 9 10 11 9 9 7 6 8 12 14 7 5 4 4 4 4 3 2 2 4 5 5 4 2 0 1 1 2 5 5 6 8
4 3 3 1 1 0 1 1 3 3 3 5 5 7 6 7 5 3 6 4 5 6 5 6 5 5 8 5 5 1 2 3 2 2 3 4 5 5 4 4 3 2 3 5 2 4 4 4 5 7 8 9 10 10 8 9 10 10 9 10 10 10 9 11 8 5 4 3 4 3 3 2 2 2 2 1 1 1 1 2 2 2 3 3 1 3 7
4 2 1 2 2 2 3 3 1 3 6 6 7 6 7 6 6 7 4 4 6 6 6 6 6 6 8 5 5 4 4 2 5 2 1 2 3 5 3 4 3 4 1 2 4 4 6 6 6 6 8 9 10 10 10 10 9 10 9 8 8 10 5 4 4 4 2 1 4 2 2 3 1 2 2 2 1 1 1 3 2 2 1 1 1 3 7
4 3 2 2 4 4 5 4 6 6 5 5 6 6 7 7 6 6 6 6 7 5 6 5 7 6 8 8 6 3 2 2 5 2 3 5 3 3 3 4 3 1 4 4 4 4 5 5 5 6 7 9 9 9 9 9 8 11 10 9 9 12 11 5 3 1 4 5 2 4 2 3 3 3 3 3 2 2 2 1 2 0 1 1 3 4 4
3 3 3 3 4 3 6 8 7 8 7 7 8 7 7 6 6 7 5 5 6 7 7 6 7 5 6 2 4 7 7 5 6 5 1 3 1 2 2 4 3 1 1 5 4 3 4 4 5 6 7 7 8 9 7 7 9 10 11 9 11 11 8 4 3 2 3 4 5 5 4 5 5 5 4 3 3 3 3 3 3 3 2 1 1 4 2
3 2 2 3 4 5 7 7 6 7 7 7 6 7 7 7 7 6 5 5 6 6 6 6 6 6 7 5 7 7 6 0 2 2 2 2 1 3 2 4 5 4 2 3 5 5 4 4 5 6 7 7 8 8 8 9 9 9 8 8 10 9 11 5 4 3 3 5 5 4 5 5 3 3 3 3 3 4 5 4 3 3 3 2 2 2 1
3 3 4 6 7 8 9 9 9 10 8 7 6 6 5 6 7 5 4 6 4 6 6 6 5 6 6 5 4 5 7 5 5 4 6 6 4 2 1 3 2 2 4 6 5 5 5 4 5 6 6 6 7 8 9 10 10 9 8 8 5 8 7 6 3 3 5 5 5 5 4 4 3 3 3 4 2 2 1 4 5 4 4 3 2 2 3
3 4 4 7 10 9 6 7 6 7 7 7 5 5 4 6 5 5 2 4 5 6 6 6 4 4 3 4 2 2 2 3 5 6 6 4 4 5 2 4 3 2 4 7 6 5 5 5 4 6 6 6 7 9 7 8 8 9 8 9 6 10 11 12 7 6 6 4 3 2 4 3 2 1 1 1 3 4 4 4 4 2 3 5 4 4 3
2 4 6 8 9 11 11 10 10 10 10 9 8 7 6 7 5 4 1 4 6 7 6 4 4 3 1 3 4 4 6 5 5 5 6 1 2 4 3 2 3 3 4 6 5 5 5 4 3 5 5 6 7 7 8 8 8 8 8 8 7 6 10 13 11 6 3 1 4 4 4 3 6 5 5 4 2 2 2 2 5 4 2 3 5 4 4
Wind_Direction
346 343 343 342 340 339 338 340 343 350 346 354 346 322 307 302 350 88 32 96 238 224 255 256 247 244 257 276 283 303 290 280 274 275 256 274 281 255 250 274 279 255 263 278 290 300 292 293 278 277 212 254 232 215 198 223 187 249 230 187 224 175 252 252 273 280 285 245 254 192 208 232 256 237 240 287 198 183 255 276 318 304 272 249 176 216 75
348 345 345 343 341 340 339 340 343 349 9 347 316 316 329 326 311 77 128 150 201 255 268 290 291 289 294 271 278 253 304 298 293 284 295 281 272 278 282 261 236 270 284 286 280 279 275 270 284 295 311 288 277 276 266 172 215 182 232 248 154 237 179 251 264 260 263 279 289 221 150 180 250 280 297 296 296 287 245 229 169 272 273 266 287 306 139
349 347 346 345 342 341 339 341 340 344 354 351 317 315 314 289 261 260 191 166 201 265 334 320 299 315 311 316 314 328 270 283 267 289 295 296 290 314 301 300 320 299 282 266 255 260 263 279 260 271 279 271 277 293 320 191 218 179 355 316 327 244 226 181 229 241 240 224 225 242 184 200 236 250 270 257 272 271 295 304 80 212 146 20 309 69 120
350 350 349 347 344 341 341 340 340 338 347 346 323 306 292 322 349 20 329 347 296 243 177 292 341 309 330 330 319 327 306 298 305 292 243 261 285 286 296 300 307 294 304 297 290 279 271 267 282 275 252 250 255 260 264 249 204 65 5 350 284 283 279 200 187 248 257 253 284 290 287 260 257 235 198 251 250 259 287 299 301 284 40 276 218 290 150
354 353 352 350 346 344 343 342 340 338 336 355 312 285 243 294 340 1 341 325 291 346 25 4 336 322 348 303 335 311 319 310 297 298 309 34 289 279 241 261 260 254 254 260 268 270 275 264 266 264 274 276 278 248 240 217 175 44 321 307 283 280 273 290 212 206 246 270 271 258 256 274 256 269 279 223 233 250 219 245 252 113 327 264 96 61 240
356 355 354 353 348 347 346 344 344 340 333 340 298 312 360 341 2 336 32 305 318 318 330 353 322 315 305 297 306 291 297 302 293 307 266 256 241 245 297 276 261 272 278 292 286 288 285 289 267 255 257 265 268 274 263 220 123 134 242 254 259 252 252 247 254 253 247 248 257 266 271 272 269 276 281 290 262 243 257 209 225 256 205 243 142 158 252
358 357 357 355 352 349 349 347 346 344 334 332 300 0 11 355 333 338 18 327 322 310 314 316 306 303 301 315 293 285 276 279 298 321 323 300 335 341 299 278 281 280 300 324 299 277 292 275 296 335 344 326 324 289 268 232 205 199 224 239 230 243 246 253 253 260 260 254 251 251 256 252 249 239 236 240 260 238 226 261 268 238 249 236 261 215 207
360 359 359 358 354 352 350 350 349 344 340 324 28 37 353 18 353 338 338 321 289 289 303 307 309 297 70 283 28 330 343 330 343 332 344 332 328 326 290 307 305 292 317 307 307 320 294 300 303 315 344 327 320 330 312 312 222 220 219 226 221 232 223 230 251 266 262 261 257 244 235 244 252 262 269 264 267 288 291 270 251 245 238 234 218 202 287
1 360 2 0 356 353 351 353 354 347 343 357 11 42 12 336 350 340 315 314 325 326 293 308 317 301 274 298 27 345 333 321 345 318 317 312 307 304 301 304 297 293 277 278 288 14 343 334 325 327 316 305 318 308 312 329 322 315 245 190 237 205 236 228 236 245 249 257 269 267 269 258 243 234 236 238 232 233 231 241 262 286 288 120 6 280 218
360 1 3 2 0 356 353 357 356 356 337 4 359 22 358 344 344 325 309 291 298 291 287 293 283 292 16 327 338 333 326 320 328 312 309 301 284 282 315 341 330 296 289 274 331 350 341 332 321 308 302 290 282 282 285 289 304 305 304 247 217 214 216 226 231 245 253 254 251 253 256 264 261 251 257 268 266 276 280 257 253 269 293 249 248 233 248
359 1 4 4 4 360 356 357 359 360 357 14 350 4 7 359 338 328 317 302 295 295 328 309 295 26 340 346 329 330 316 321 312 308 317 318 307 326 328 314 305 310 297 310 351 316 336 315 311 298 288 283 278 277 279 282 278 279 281 285 258 243 223 216 225 255 255 249 242 254 255 246 246 266 252 242 252 234 240 249 247 252 263 290 235 218 116
359 1 5 6 6 3 360 359 359 360 2 346 320 348 13 345 321 313 328 318 313 316 324 327 352 332 325 337 331 325 325 323 320 319 309 306 305 309 307 293 291 282 300 323 308 289 332 318 290 277 268 268 271 272 269 271 268 270 273 274 276 265 256 243 221 250 254 264 269 246 244 248 247 255 266 267 254 254 319 323 284 251 268 276 295 300 150
359 1 5 8 7 5 3 2 359 358 360 349 336 7 12 353 331 338 334 313 303 326 327 328 321 342 1 345 334 326 321 312 298 293 283 285 286 290 288 300 293 289 316 303 313 306 325 317 304 286 287 284 276 265 258 254 258 259 262 261 257 255 260 242 230 246 256 263 251 255 247 273 262 260 273 276 271 268 307 274 25 23 31 20 32 36 87
360 1 6 8 8 6 4 4 0 354 355 353 333 341 25 1 0 354 351 336 310 319 329 296 325 358 341 336 326 319 313 304 314 306 290 292 310 311 322 317 301 295 294 311 294 300 307 293 284 263 245 247 253 260 251 248 246 250 248 248 251 258 250 234 257 231 253 240 246 251 281 269 256 252 246 283 279 328 5 322 53 23 29 24 22 19 356
359 1 7 7 9 8 5 5 2 356 353 349 323 334 40 10 1 346 318 307 304 307 302 352 343 337 332 322 326 316 312 318 318 313 328 319 301 276 288 289 302 313 297 283 274 268 289 298 283 270 255 235 235 240 240 241 233 234 240 241 245 244 242 238 245 232 232 248 252 244 245 249 233 253 255 14 331 338 257 261 200 22 28 24 30 27 3
356 360 0 5 6 8 6 5 2 357 356 349 340 336 45 23 353 335 327 313 310 296 33 352 339 329 318 305 298 304 327 333 334 329 318 319 314 328 338 320 334 346 330 307 289 304 295 275 269 264 252 252 282 331 261 302 256 229 223 227 233 234 242 239 232 241 231 230 243 246 247 249 5 355 328 82 288 263 274 333 244 13 7 26 31 30 18
354 357 357 0 3 7 7 7 2 359 353 358 341 329 41 41 12 348 335 317 298 277 311 312 331 322 307 308 327 331 354 326 335 317 319 312 326 314 304 340 339 311 288 294 282 263 262 254 262 265 270 272 266 284 331 256 264 287 305 248 222 227 228 220 228 229 232 237 231 238 242 245 191 221 234 81 12 42 247 249 223 340 359 21 24 34 21
352 356 354 357 3 8 8 8 6 358 353 351 339 316 345 44 8 339 317 300 300 294 278 342 337 324 317 336 315 312 308 307 303 323 299 316 302 315 340 326 323 314 299 275 258 266 255 258 261 259 264 239 22 325 258 24 288 319 311 335 309 240 228 226 226 222 223 236 244 242 236 91 103 56 29 37 20 9 247 241 72 328 18 16 22 30 25
348 354 353 355 356 3 4 5 7 0 356 354 343 317 84 30 11 346 329 305 302 288 307 325 307 294 305 309 289 294 277 272 259 287 305 298 327 357 326 298 276 271 292 296 320 281 265 264 255 262 265 262 306 259 314 263 290 342 306 321 277 304 328 243 226 224 223 222 236 236 269 29 341 135 61 27 35 212 229 74 227 33 12 35 16 37 25
343 348 353 351 353 359 359 358 1 1 358 357 348 343 316 14 6 8 347 331 320 294 294 287 306 330 331 310 311 307 316 314 303 296 297 291 325 329 323 273 66 332 284 267 263 268 277 275 277 289 264 270 255 343 312 295 289 241 306 287 246 282 281 345 339 309 266 237 233 216 221 48 345 359 132 19 260 93 155 342 52 32 27 27 21 25 13
334 338 342 347 347 354 353 351 359 358 1 357 349 333 319 27 352 353 328 322 307 304 293 251 358 320 301 293 295 297 296 300 313 293 285 283 307 318 297 357 336 328 338 4 323 329 324 301 328 303 318 301 9 298 357 354 289 286 285 278 313 72 300 261 48 65 89 316 291 5 6 303 350 1 8 51 61 79 78 334 60 39 38 26 1 30 4
331 331 334 339 340 344 346 349 354 357 0 359 334 317 301 345 339 350 341 316 280 262 273 297 296 287 279 269 263 274 293 278 285 303 303 292 285 281 290 299 294 294 334 333 302 285 327 345 303 311 321 303 292 261 359 282 255 304 305 265 253 131 266 157 176 96 288 164 181 224 321 341 339 15 57 54 353 42 348 67 72 37 48 17 358 11 350
322 327 334 330 332 341 344 347 348 351 350 352 338 340 322 316 324 336 316 301 285 268 268 265 261 261 260 255 252 265 263 283 291 262 240 249 275 270 277 277 274 328 309 312 296 296 298 309 307 320 301 313 307 308 260 237 263 226 279 328 302 272 236 153 188 204 195 270 277 290 278 353 327 12 43 9 335 345 13 41 14 43 19 9 15 352 0
312 322 325 323 331 340 345 345 345 345 344 345 333 326 317 318 301 312 309 295 296 314 299 254 246 248 281 330 224 205 229 225 226 296 327 290 261 260 260 287 2 301 348 43 341 306 303 301 293 302 291 306 346 288 277 260 257 46 238 278 275 285 255 219 189 197 113 307 168 233 279 285 306 325 0 53 9 26 17 22 17 10 346 354 359 1 345
298 314 316 317 325 338 336 339 341 343 339 337 328 314 296 292 306 337 328 329 332 328 315 315 299 287 358 39 355 295 241 274 219 195 208 180 246 274 277 333 327 307 308 309 296 289 277 283 290 284 284 299 301 288 10 302 342 85 284 229 70 257 314 302 258 273 233 210 172 203 273 305 271 308 10 349 24 14 12 358 350 346 325 331 350 332 322
288 302 308 306 318 327 330 331 334 335 335 333 318 312 311 308 312 307 295 288 293 284 285 292 295 342 346 312 297 322 275 244 279 243 236 242 238 246 258 266 261 268 286 299 296 282 291 278 274 277 281 288 87 285 295 67 264 284 260 277 213 180 173 254 226 231 252 276 272 272 291 274 267 270 303 14 16 353 350 352 335 333 341 340 332 324 316
262 291 302 304 313 321 319 324 326 332 331 331 318 308 291 286 287 288 303 326 323 274 232 272 317 319 330 318 303 292 286 278 239 255 278 264 250 247 261 267 276 277 268 272 262 268 262 267 273 271 275 282 307 288 284 278 273 283 280 286 331 291 278 283 250 255 258 261 294 59 260 261 307 291 24 338 326 331 338 322 332 330 334 335 320 314 310
260 274 293 301 308 308 314 315 321 326 329 321 305 293 277 268 259 256 274 287 331 310 305 299 299 300 314 284 266 248 233 240 252 267 274 269 250 247 251 263 266 264 266 263 274 260 262 266 265 290 287 302 310 280 279 290 277 262 242 258 189 254 249 248 267 278 282 41 96 245 307 287 270 277 290 309 338 289 279 302 302 316 319 327 321 313 305
261 275 289 300 299 303 306 313 317 324 327 316 306 297 271 246 245 232 228 183 295 304 294 290 285 272 275 341 337 295 285 265 239 221 229 243 255 252 251 256 260 265 260 271 276 279 276 269 277 271 270 320 294 285 296 275 271 269 279 146 256 243 304 285 279 282 281 270 273 249 256 272 282 298 305 288 283 287 281 270 265 278 318 328 322 307 299
255 267 288 291 288 290 298 306 316 319 323 315 314 296 288 134 54 68 3 331 336 311 305 322 312 304 337 314 276 293 282 233 259 287 258 250 249 250 248 242 248 248 264 271 274 277 273 282 272 269 270 254 263 292 280 283 276 285 287 187 212 222 233 243 257 265 274 315 329 317 308 291 287 278 277 279 289 318 307 313 346 351 327 323 300 293 290
254 266 263 265 273 281 291 303 311 316 311 305 314 290 284 208 72 29 21 334 342 314 301 283 280 295 291 252 249 259 279 274 221 233 253 232 233 242 238 239 236 241 252 247 253 257 273 267 274 269 268 251 253 264 275 281 283 276 293 73 353 315 301 284 285 268 267 265 282 284 261 258 268 280 263 261 294 256 283 317 23 38 309 296 286 285 287
255 263 264 268 271 279 289 296 300 307 299 287 267 292 334 339 335 312 320 311 308 286 284 299 301 277 287 286 245 214 234 251 261 259 253 262 253 205 231 205 231 224 238 250 243 258 259 268 265 273 270 254 223 262 260 265 268 272 288 238 220 286 276 266 260 258 262 272 274 264 260 257 243 253 281 271 282 287 274 239 229 243 272 269 272 274 275
265 272 275 275 277 279 284 287 289 291 290 295 304 294 281 272 263 260 264 260 253 254 274 282 283 303 280 307 318 299 298 263 268 272 264 183 262 282 272 263 255 241 205 244 253 259 262 259 251 262 290 346 276 261 268 268 270 285 291 295 284 280 284 276 272 271 278 262 236 250 276 282 279 264 270 293 276 276 247 236 241 219 224 243 255 259 255
272 278 276 275 277 281 282 284 285 282 275 266 268 249 238 213 228 227 238 211 264 274 255 267 279 281 283 300 282 345 329 293 269 202 264 194 257 266 279 280 241 260 229 238 253 256 246 261 263 271 199 216 222 261 257 261 271 285 291 290 283 260 248 259 273 272 258 259 270 256 236 230 241 251 277 285 280 243 238 246 267 255 243 256 265 265 268
278 279 278 278 279 283 286 279 286 266 281 272 262 309 70 112 9 173 208 266 278 230 218 227 238 281 290 289 285 334 340 279 293 341 277 280 178 268 287 267 252 245 242 215 248 245 264 262 291 276 263 275 254 248 257 269 278 282 284 294 301 318 324 303 282 286 275 259 256 262 277 284 277 271 263 271 274 278 274 244 230 243 247 251 259 269 267
277 279 282 283 283 279 283 258 235 254 240 250 298 108 126 179 195 205 226 232 248 289 283 280 280 271 290 293 299 352 160 263 214 222 269 308 247 226 264 265 266 248 286 269 263 266 261 283 266 264 279 262 250 264 301 360 348 356 353 328 317 301 281 285 292 298 312 320 313 310 307 312 294 278 253 246 266 281 299 276 253 247 252 263 273 274 265
275 287 290 282 274 256 249 246 201 216 284 15 26 155 191 220 246 243 241 245 222 227 264 282 273 265 267 286 301 286 300 298 56 300 117 283 272 309 253 234 255 282 238 241 244 261 258 149 227 253 258 260 287 71 59 8 356 332 332 323 315 323 322 309 304 308 301 302 305 303 294 284 288 302 303 290 274 292 54 288 291 288 277 271 268 267 266
295 291 289 287 265 265 269 202 183 57 349 255 234 267 183 171 246 201 189 222 206 191 224 232 252 262 269 265 260 316 314 292 326 276 168 284 273 226 194 229 273 248 256 268 251 215 239 226 239 252 261 324 4 359 8 353 346 329 301 299 298 293 280 274 286 282 287 285 281 278 273 265 266 268 283 301 316 306 268 238 234 257 271 270 266 267 269
264 273 254 245 269 292 328 47 120 158 261 273 262 284 247 220 248 238 207 190 173 217 218 234 251 249 249 250 258 259 277 311 299 304 308 130 270 293 127 273 62 281 269 257 148 352 266 235 248 281 256 262 278 343 349 335 325 303 301 289 287 285 287 286 272 271 268 263 275 274 273 279 286 289 286 284 288 285 286 276 265 267 279 294 297 292 275
254 248 255 258 238 338 342 141 164 215 268 286 212 253 272 220 235 254 153 215 226 233 202 238 228 236 241 260 281 282 304 271 292 315 318 291 159 289 57 211 149 261 272 286 14 115 283 283 208 221 263 218 290 310 305 316 305 301 298 299 292 287 287 290 288 280 271 259 250 260 256 255 258 272 278 277 279 291 298 301 330 349 350 357 334 304 284
236 249 247 283 351 346 324 325 318 296 263 242 235 218 258 255 226 262 254 251 261 257 196 259 258 251 242 258 273 288 281 299 135 195 185 259 314 274 256 271 88 254 274 293 46 306 299 263 290 272 18 32 343 335 333 324 320 316 308 297 291 287 289 287 279 273 270 265 254 247 247 251 252 251 255 267 292 308 307 319 323 314 316 318 308 284 288
20 302 316 302 286 283 290 261 247 262 239 245 263 258 230 260 247 231 235 271 266 290 274 270 273 301 308 304 276 263 295 76 291 251 268 259 137 258 281 293 123 275 295 53 320 341 291 287 292 306 55 2 357 336 331 319 326 320 310 303 299 295 285 277 276 264 251 250 255 264 263 249 252 247 269 298 303 294 291 305 302 305 306 311 266 271 288
289 252 284 297 284 259 233 269 192 232 245 254 232 283 261 254 230 245 234 230 287 263 190 168 306 258 239 241 284 311 340 19 297 258 255 299 129 253 285 272 261 248 209 235 244 249 260 283 292 350 349 344 348 337 329 328 321 318 309 302 292 287 291 282 271 256 234 216 204 208 235 245 243 222 198 303 280 280 309 338 325 330 319 315 309 289 271
255 262 243 224 260 256 192 263 175 210 236 224 210 240 223 237 234 238 260 155 54 343 317 303 308 298 303 45 298 284 253 167 344 284 264 349 340 277 253 254 251 11 311 274 318 295 309 341 11 321 337 343 335 339 338 324 317 319 319 313 297 311 290 264 254 237 199 222 199 209 209 220 151 181 174 180 207 199 193 246 31 303 3 22 12 334 297
261 237 243 272 288 245 94 285 200 227 237 235 230 260 278 290 329 289 283 332 293 292 278 280 297 304 295 311 273 40 336 301 124 265 312 345 273 267 278 301 338 271 325 338 324 273 285 325 354 334 342 336 338 336 331 324 324 332 328 316 325 282 276 268 211 177 203 224 226 204 186 159 193 177 152 135 158 155 156 57 36 12 29 56 100 244 262
221 244 231 219 283 262 220 253 208 237 240 252 257 271 281 295 317 305 310 291 291 297 298 310 296 295 295 311 296 288 192 221 274 228 172 159 265 281 329 314 297 296 224 190 259 316 345 340 341 336 334 332 328 330 326 326 334 331 341 323 325 300 199 249 326 136 242 302 282 146 132 144 122 97 43 41 317 236 111 114 102 52 92 249 223 225 242
258 250 272 274 263 253 228 245 236 232 261 270 275 286 289 308 311 294 293 283 280 301 302 309 312 310 305 310 303 286 14 281 275 190 212 265 266 310 336 316 293 98 302 314 343 354 343 4 345 320 320 323 326 327 336 325 331 332 340 328 342 322 319 315 49 5 119 137 149 111 98 85 78 48 37 25 6 52 66 55 64 25 7 24 280 279 256
238 243 237 241 243 236 233 235 250 266 268 272 276 282 298 308 290 276 289 302 303 303 293 309 296 307 284 261 258 282 283 271 288 275 250 324 321 274 314 240 268 7 316 328 353 27 352 1 337 320 321 323 329 329 330 318 330 332 337 327 348 317 274 306 28 332 49 90 86 64 59 60 43 43 17 19 4 23 25 32 10 7 14 45 183 231 262
275 283 236 236 241 264 271 300 312 282 273 268 277 286 285 279 278 292 307 310 301 301 312 303 305 308 291 324 307 301 283 168 265 271 148 119 231 265 281 313 10 326 240 253 347 350 351 358 345 327 321 324 335 332 332 343 338 330 323 339 348 325 310 318 18 24 18 44 45 64 64 58 41 36 16 41 38 19 358 20 25 2 350 325 344 315 254
238 239 248 254 270 268 270 274 273 271 274 276 278 270 280 280 285 301 355 307 314 316 304 277 263 275 303 309 287 301 296 282 280 301 287 274 274 300 320 305 147 245 330 339 353 345 3 358 348 323 324 317 330 340 341 336 337 330 332 333 356 314 307 330 354 23 42 51 52 52 54 54 38 10 16 29 357 323 79 63 28 2 351 335 316 300 314
251 250 249 239 249 266 292 282 280 286 288 282 289 294 292 282 287 300 352 304 312 303 288 289 317 290 296 304 305 272 262 356 293 274 285 326 39 297 5 320 12 44 313 306 325 343 352 13 346 334 334 339 348 340 335 324 330 321 333 313 1 348 324 305 338 20 33 38 60 28 47 51 53 33 59 69 35 350 10 19 39 6 352 328 312 290 283
231 235 246 242 240 251 261 272 276 277 282 289 285 278 280 277 290 294 161 259 282 279 287 303 282 288 282 245 250 297 316 291 272 289 276 139 177 304 330 325 357 325 303 298 317 341 350 6 0 327 353 347 345 347 331 331 327 330 331 330 340 1 350 318 313 320 346 1 58 24 51 31 53 25 15 3 42 15 70 353 320 327 18 296 300 295 270